Theta_e
326 334 327 321 328 328 330 332 333 332 331 332 330 328 329 331 331 331 331 331 332 332 331 331 331 331 331 330 329 328 327 326 325 325 325 325 325 325 325 326 325 326 327 327 327 326 326 325 324 322 320 320 320 320 319 318 317 316 315 315 319 328 335 337 336 337 337 339 340 339 338 338 338 336 336 338 338 337 337 338 338 337 333 332 336
326 332 331 322 325 329 329 332 334 334 334 333 332 329 329 330 330 331 330 331 332 332 332 332 331 331 332 332 332 332 331 330 329 327 327 327 326 326 326 325 325 325 324 325 325 325 325 325 323 321 319 318 318 319 319 319 318 317 316 314 314 318 325 332 334 335 335 337 340 340 338 338 339 336 333 336 339 339 338 338 338 338 333 331 336
329 330 328 324 324 327 330 332 333 334 335 335 335 332 330 330 329 330 328 329 331 332 333 333 332 332 332 333 333 334 333 333 332 332 332 331 330 329 328 327 327 326 325 325 325 326 326 324 322 321 320 319 318 318 318 318 319 318 317 315 314 314 316 322 328 332 333 335 338 340 339 338 339 336 331 335 338 340 339 337 338 339 334 331 336
330 330 327 327 324 323 327 332 333 333 334 334 336 334 332 331 330 330 329 329 330 331 332 331 332 332 332 333 333 333 333 333 333 333 333 332 332 331 331 330 329 328 327 327 327 327 327 327 326 324 322 321 319 318 319 318 318 318 318 318 316 314 313 316 322 327 331 334 337 339 340 339 339 335 330 335 339 341 340 339 338 339 334 331 336
328 329 328 328 326 322 321 326 330 332 333 334 334 334 334 333 332 330 330 330 329 331 331 331 331 331 331 331 332 331 332 333 332 332 333 333 332 332 332 331 331 330 329 329 328 327 328 329 329 327 326 323 322 321 319 319 319 319 319 319 318 316 313 314 321 328 330 333 336 338 339 339 340 336 330 334 339 340 340 340 340 339 334 332 336
325 325 325 324 324 321 316 317 323 327 329 332 333 333 333 334 334 333 332 331 330 331 331 332 332 332 332 331 330 330 331 332 332 332 332 332 332 333 333 332 331 331 331 330 329 328 328 328 328 329 329 327 327 327 324 320 318 319 320 320 319 317 314 313 318 327 331 332 335 337 339 340 340 337 331 333 339 339 340 340 341 339 333 334 338
321 321 319 318 317 316 314 313 317 321 324 327 329 330 331 331 332 333 332 331 332 332 332 332 332 332 332 331 331 331 331 331 331 332 332 333 333 333 333 332 331 331 331 331 331 330 328 327 327 327 329 329 329 330 330 327 322 319 317 318 318 317 315 313 313 321 329 331 333 335 339 340 341 338 331 332 339 339 340 341 341 338 334 335 339
316 316 315 314 314 314 313 312 313 316 319 321 324 325 326 327 328 330 331 331 331 332 332 332 331 332 332 332 332 332 332 332 332 331 332 332 333 333 333 332 331 331 331 331 331 331 330 328 327 326 327 328 328 329 331 333 331 327 321 317 315 314 314 313 312 314 322 329 332 333 336 339 340 339 332 331 338 339 339 340 341 339 335 336 338
312 312 312 313 313 313 313 313 312 313 314 316 318 319 321 321 323 324 326 328 329 330 331 331 331 331 331 331 331 331 331 331 331 331 331 331 331 332 332 332 331 330 330 330 331 331 331 330 329 327 327 327 327 327 328 330 333 334 331 326 319 314 312 312 312 311 314 322 329 332 334 337 339 339 333 331 336 338 338 339 342 339 336 338 339
309 309 309 310 310 311 311 311 311 312 312 313 314 314 316 316 317 318 319 320 322 325 327 329 330 330 331 331 331 331 330 329 328 329 329 329 329 330 330 331 331 331 330 330 330 330 331 332 331 330 328 328 327 327 326 326 328 332 334 334 331 324 316 311 310 311 311 314 322 329 332 335 338 340 335 331 333 335 336 338 340 340 338 338 339
307 307 307 307 308 308 308 308 309 309 309 310 311 311 312 312 313 314 314 315 316 318 320 322 325 328 329 330 330 330 330 329 328 328 327 327 328 329 330 330 330 330 330 330 330 330 330 331 331 331 330 329 329 328 327 326 325 326 330 333 335 334 329 320 312 309 310 311 314 321 330 334 335 339 337 331 331 334 335 337 338 339 339 338 340
305 305 305 306 306 306 306 307 307 307 307 307 308 308 309 309 310 311 311 312 313 314 315 316 318 321 322 324 326 328 329 329 328 327 326 325 326 327 328 328 328 329 330 330 330 330 330 330 330 330 330 330 330 330 330 328 326 324 326 329 332 334 335 332 324 314 309 309 310 313 321 330 334 336 338 333 330 333 335 336 338 339 339 339 339
305 305 305 305 305 306 306 306 306 306 306 306 306 306 306 307 307 308 308 309 310 311 311 312 314 315 316 318 320 323 324 325 326 326 325 325 325 325 325 325 325 327 329 329 329 330 330 330 330 330 331 330 330 331 330 330 329 326 324 325 328 331 333 335 334 327 317 309 307 310 314 321 330 334 338 335 330 330 334 336 337 337 339 340 339
304 304 305 305 305 305 305 306 306 306 306 306 306 306 306 306 306 306 307 307 307 308 308 309 310 311 312 313 314 316 317 318 320 321 322 323 323 323 324 324 324 325 326 327 327 326 327 328 329 329 330 330 330 331 330 330 330 329 326 324 325 328 330 333 335 335 331 322 312 307 309 314 321 331 337 337 333 330 332 335 336 336 337 339 339
304 304 304 304 305 305 305 305 305 305 306 306 306 306 306 306 306 307 307 307 307 307 307 307 307 308 308 309 309 310 311 312 314 315 316 317 318 319 319 320 321 322 324 325 325 324 324 325 327 328 329 330 329 329 330 330 330 329 328 326 325 325 328 331 332 334 335 334 326 313 307 310 316 326 335 338 336 332 332 334 336 337 337 338 338
304 304 304 304 304 304 305 305 305 305 305 305 305 305 306 306 306 306 306 306 306 306 306 306 307 307 307 307 307 307 308 308 309 310 311 312 313 314 315 315 316 317 318 319 320 322 323 324 325 326 327 328 329 328 329 330 330 330 328 327 326 325 326 329 331 332 333 335 334 325 312 308 315 325 332 337 338 333 332 334 335 337 337 338 338
304 304 304 304 304 304 304 304 304 304 304 304 304 304 303 304 303 304 304 304 304 304 304 305 305 305 306 306 306 306 306 306 306 306 307 308 310 311 312 313 313 314 314 315 315 317 319 321 322 322 322 323 324 326 328 329 329 329 329 328 327 326 325 328 329 330 332 332 334 333 323 311 312 323 331 335 338 335 331 333 335 336 336 336 338
304 304 304 304 304 304 304 303 303 303 302 302 302 302 302 302 302 302 302 302 302 302 302 302 302 303 303 303 304 305 305 305 305 305 305 305 306 307 308 310 312 313 314 314 314 314 314 316 317 319 319 318 318 321 324 327 328 327 329 330 328 326 326 326 328 328 329 330 331 333 332 320 309 316 328 333 337 336 331 332 334 335 335 336 337
303 303 303 303 304 303 303 302 302 302 301 301 301 301 301 301 301 301 301 301 301 301 301 301 301 301 301 301 301 302 303 303 304 304 304 304 304 304 305 305 307 309 311 313 314 314 314 314 314 315 316 316 315 316 317 321 326 326 327 330 329 327 326 326 326 327 327 329 330 330 332 329 316 310 319 330 334 336 334 333 334 334 334 335 337
303 303 303 303 303 302 302 301 301 301 301 301 301 301 301 301 301 301 301 301 301 301 301 301 301 300 300 300 300 300 300 301 301 302 302 303 303 304 304 304 304 304 305 308 310 313 314 315 314 314 313 314 314 314 313 314 320 324 325 327 329 327 327 327 325 325 325 326 328 329 330 331 325 315 315 323 331 335 336 336 335 334 334 334 336
303 303 303 303 302 301 301 301 301 301 301 301 301 301 301 301 301 301 301 301 301 301 301 301 301 300 300 300 300 300 300 299 299 300 300 300 300 301 302 302 303 303 303 303 305 307 310 312 314 315 314 313 313 313 313 312 313 319 322 324 326 326 327 328 327 326 325 324 325 326 328 329 330 324 320 323 328 332 335 337 335 334 335 334 334
303 303 303 302 302 301 301 301 301 301 301 301 301 300 300 300 300 300 300 300 300 300 300 300 300 300 300 300 300 300 300 300 299 299 299 299 299 299 299 300 300 301 302 302 302 303 304 306 309 313 315 315 314 314 314 313 312 313 318 323 325 325 326 327 327 327 326 324 323 324 325 327 329 329 326 325 327 330 332 335 336 334 334 334 333
302 302 302 302 301 301 301 301 301 301 301 300 300 300 300 300 300 300 300 300 300 300 300 300 299 300 299 299 299 299 299 299 299 299 299 299 299 299 299 299 299 299 299 300 301 301 302 302 303 306 310 313 316 316 315 314 313 312 312 318 324 326 327 327 327 327 327 326 324 322 322 324 327 329 329 328 326 328 330 333 336 335 333 334 334
302 302 301 301 301 301 301 301 300 300 300 300 300 300 300 300 300 299 300 300 299 299 299 299 299 299 299 299 299 298 298 298 298 298 298 299 299 299 299 299 299 299 298 299 299 299 300 301 302 302 304 307 312 315 317 317 315 314 312 313 318 323 326 327 327 327 327 327 326 324 322 321 323 327 329 330 328 327 329 331 334 335 334 334 334
302 301 301 300 300 300 300 300 300 300 300 299 299 299 299 299 299 299 299 299 299 299 299 299 299 299 298 298 298 298 298 298 298 297 298 298 298 298 298 299 299 299 299 299 299 299 299 299 300 301 301 302 305 309 314 317 318 316 314 313 314 317 321 325 327 327 326 326 327 326 324 321 320 323 326 329 330 328 328 330 332 335 334 334 334
301 300 300 300 300 300 300 299 299 299 299 299 299 298 298 298 298 298 298 298 298 298 298 298 298 298 298 298 298 298 298 297 297 297 297 297 297 297 297 297 298 298 298 299 299 298 298 298 299 299 300 300 301 303 307 312 317 319 318 316 315 315 316 321 325 326 325 326 326 327 326 323 320 320 323 326 329 329 329 329 331 333 334 334 333
300 299 299 299 299 299 299 299 299 298 298 298 298 298 297 297 297 297 297 297 297 297 297 297 297 297 297 297 297 297 297 297 297 297 297 297 297 297 297 297 297 297 297 298 298 298 298 298 298 298 298 299 299 300 302 305 310 316 319 319 318 317 316 317 320 322 323 325 326 326 326 326 323 319 319 322 326 329 329 329 330 331 333 334 333
299 299 298 298 298 298 298 298 298 298 298 298 297 297 297 297 296 296 296 296 296 296 296 296 296 296 296 296 296 296 296 296 296 296 296 296 296 296 296 296 296 296 296 297 297 297 298 298 298 298 298 298 298 298 299 300 303 308 315 319 320 319 319 318 318 321 322 323 325 325 325 326 325 321 318 319 322 325 328 329 330 331 333 334 334
299 298 298 298 298 297 297 297 297 297 297 297 297 297 296 296 296 295 295 295 295 295 295 295 295 295 295 295 295 295 295 295 295 295 295 295 295 295 295 295 295 296 296 296 296 296 297 297 297 298 298 298 298 298 298 299 299 301 306 313 319 320 321 321 320 321 322 321 322 324 325 325 326 324 320 318 319 321 325 328 329 331 331 333 334
298 297 297 297 297 297 297 297 297 297 297 297 297 296 296 295 295 295 295 295 295 295 295 295 295 295 295 294 294 294 294 294 294 294 294 294 295 295 295 295 295 295 295 295 296 296 296 297 297 297 298 298 298 298 297 298 298 299 300 305 312 318 320 322 322 322 321 321 321 322 324 324 324 325 323 320 318 319 322 325 328 330 331 331 333
297 297 297 297 297 296 296 296 296 296 296 296 296 296 295 295 295 294 294 294 294 294 294 294 294 294 294 294 294 294 294 294 294 294 294 294 294 295 295 295 295 295 295 295 295 296 296 296 296 296 297 297 298 298 298 297 297 298 298 299 303 310 316 320 322 323 322 322 322 321 322 323 323 323 324 322 320 319 320 322 325 328 330 331 331
297 297 296 296 296 296 296 296 296 296 295 295 295 295 295 294 294 294 294 294 294 294 294 294 294 294 294 294 294 294 294 293 293 294 294 294 294 294 294 294 295 295 295 295 295 295 295 295 296 296 296 296 297 297 297 297 297 297 297 297 298 302 308 313 318 323 323 323 323 322 321 322 323 322 323 323 322 320 320 321 322 324 328 330 331
297 296 296 296 296 295 295 295 295 295 295 294 294 294 294 294 294 294 293 293 293 293 293 293 294 294 294 293 293 293 293 293 293 293 293 293 294 294 294 294 294 294 295 295 295 295 295 296 296 295 295 295 296 296 297 297 297 297 296 297 296 297 300 304 309 317 322 323 323 323 322 321 322 323 322 321 322 322 320 320 320 321 324 328 330
296 295 295 295 295 294 294 294 294 294 294 294 294 294 295 294 294 293 293 293 293 293 293 293 293 294 294 293 293 293 293 293 293 293 293 293 293 293 294 294 294 294 294 294 295 295 295 295 295 295 295 295 295 295 296 296 297 297 297 296 296 296 297 299 303 308 315 321 322 323 322 321 321 322 323 321 321 322 322 321 320 320 321 324 327
295 295 294 294 294 294 294 294 294 294 294 294 294 295 294 294 293 293 293 293 293 293 293 293 294 294 294 293 293 292 292 292 292 293 293 293 293 293 293 293 294 294 294 294 294 295 295 295 295 295 295 295 295 295 294 295 295 296 296 296 296 296 295 296 299 302 306 312 318 322 323 323 322 322 322 322 321 321 322 321 321 320 321 322 324
294 294 294 294 294 293 293 294 294 294 294 294 294 294 294 293 293 293 293 293 293 292 292 293 294 294 293 293 292 292 292 292 292 292 292 292 292 293 293 293 293 293 294 294 294 294 294 295 294 294 294 295 295 295 294 293 294 294 295 295 295 295 295 295 296 298 301 303 310 319 323 324 324 323 322 323 322 321 323 322 321 320 320 321 322
293 293 293 293 293 293 293 294 294 294 294 294 294 294 293 293 293 293 292 292 292 292 292 293 294 293 293 292 291 291 291 292 292 292 292 292 292 292 292 293 293 293 293 293 293 293 293 293 293 293 292 293 293 294 294 293 293 293 294 294 295 295 295 295 296 296 297 299 303 312 320 323 324 324 323 323 323 322 323 324 322 320 320 321 321
293 293 293 293 293 293 293 294 294 294 294 293 293 293 293 293 293 292 292 292 292 292 292 293 294 293 292 291 291 291 291 291 291 291 291 292 292 292 292 292 292 292 293 293 293 293 293 293 293 292 291 291 291 292 292 292 292 293 293 293 294 294 295 295 295 295 295 296 299 304 313 321 323 323 324 323 323 322 323 325 324 321 320 321 321
293 293 293 293 293 293 293 294 294 293 293 293 293 293 293 293 293 292 292 292 292 292 292 293 293 292 291 291 291 291 291 291 291 291 291 291 291 291 292 292 291 292 292 292 292 293 293 292 292 292 292 291 290 290 291 291 292 292 293 293 294 294 295 294 295 295 295 295 297 300 305 315 321 322 323 323 323 321 322 324 325 324 321 320 321
293 293 292 292 292 293 293 293 293 293 293 293 293 292 292 293 293 292 292 292 292 292 292 293 293 292 291 291 290 290 290 290 290 290 290 290 291 291 291 291 290 290 291 291 292 292 292 292 292 291 291 292 291 290 290 291 292 293 293 294 294 295 294 294 294 295 295 295 295 297 299 306 317 322 322 323 323 322 321 323 325 325 323 320 321
293 292 292 292 293 293 293 293 293 293 293 293 292 292 292 292 292 292 292 292 292 292 292 293 292 292 291 291 290 290 290 290 290 290 290 290 290 290 290 290 290 290 290 291 291 291 291 291 291 291 290 290 291 290 289 290 292 293 294 294 295 294 294 294 294 295 295 295 295 296 298 300 308 319 322 322 323 323 322 322 324 325 325 323 321
293 292 292 292 293 293 293 293 292 292 292 292 292 292 292 292 292 292 292 292 292 292 292 292 292 291 291 290 290 290 289 289 289 289 289 289 289 290 290 290 290 290 290 291 291 291 291 291 291 291 290 288 289 289 288 289 291 293 294 294 295 294 294 294 294 295 295 295 295 294 296 298 303 314 321 322 322 323 323 323 324 325 326 325 323
293 292 292 292 293 293 293 292 292 292 292 291 291 291 291 291 291 291 291 291 291 291 291 291 291 290 290 290 289 289 289 289 289 289 289 289 289 289 290 290 290 289 290 290 291 291 291 291 290 290 289 288 287 287 287 288 290 292 294 294 295 295 295 295 295 295 296 296 299 299 298 297 299 307 318 321 322 323 323 323 324 325 326 326 324
293 293 292 293 293 293 292 292 292 292 291 291 291 291 291 291 291 291 291 291 291 291 290 290 290 290 289 289 289 288 288 288 288 288 289 289 289 289 289 289 289 289 289 290 290 290 290 290 290 289 288 287 286 287 287 287 289 291 294 295 295 296 296 296 295 296 295 296 300 304 305 305 302 302 312 319 321 322 322 323 324 325 326 326 325
293 293 293 293 293 292 292 292 291 291 291 291 291 291 291 291 291 291 291 291 291 291 291 291 290 290 289 289 289 288 288 288 288 288 288 288 288 289 289 289 289 288 289 289 290 290 290 289 289 288 287 285 284 285 286 286 287 289 292 294 295 296 296 296 296 296 295 295 297 299 302 308 310 308 311 316 319 321 322 322 324 325 325 326 326
293 293 293 293 292 292 292 291 291 291 291 291 291 291 291 290 291 291 291 291 290 290 290 290 290 290 289 289 289 288 288 288 288 288 288 288 288 288 288 288 288 288 288 289 289 289 289 289 288 287 286 285 283 282 284 285 285 287 289 292 294 295 296 296 296 296 295 295 296 295 296 303 309 312 315 316 318 321 323 323 322 323 324 325 325
294 293 292 292 292 292 292 291 291 291 290 290 290 290 290 290 290 290 290 290 289 289 289 289 289 289 289 289 288 288 288 288 288 288 288 288 288 288 288 288 288 288 288 289 289 289 289 289 288 287 286 284 282 281 282 283 284 286 288 290 293 294 295 296 296 296 296 296 295 295 295 297 302 308 314 317 318 319 322 323 322 322 323 323 324
293 293 292 292 292 292 291 291 291 290 290 290 290 290 290 290 290 290 290 289 289 289 289 289 289 288 288 288 288 287 287 287 287 288 288 288 288 288 287 287 287 287 288 288 289 289 289 288 288 287 286 284 281 280 281 282 283 284 286 289 292 293 294 296 296 296 297 297 296 295 296 296 297 304 310 314 317 318 320 323 322 322 323 323 324
293 293 292 292 292 291 291 291 290 290 290 290 290 290 290 290 289 289 289 289 289 289 289 289 289 288 288 288 287 287 287 287 287 287 288 288 287 287 287 287 287 287 288 288 289 288 288 288 288 287 286 284 282 280 280 281 282 283 284 286 289 292 294 295 295 296 297 298 297 296 296 296 295 300 306 310 313 315 319 322 322 322 323 323 323
293 292 291 291 291 291 291 290 290 290 290 290 290 290 290 289 289 289 289 289 289 289 289 289 288 288 288 288 287 287 287 287 287 287 287 287 287 286 286 286 286 287 288 288 288 288 288 288 287 287 286 284 282 281 280 281 281 282 283 284 287 290 293 294 295 296 297 297 297 296 296 297 297 298 302 307 309 312 316 321 322 322 324 323 323
293 292 291 291 291 291 291 290 290 290 290 290 290 290 289 289 289 289 289 289 289 289 289 288 288 288 287 287 287 287 287 287 287 287 287 287 286 286 286 286 286 287 288 288 288 288 287 287 287 286 285 284 282 280 280 281 281 282 282 283 286 289 292 294 295 296 296 296 296 296 296 296 297 298 299 303 307 308 311 318 322 323 324 325 324
Wind_Speed
4 8 5 5 6 5 4 4 2 2 3 3 4 4 4 3 3 4 5 5 6 7 7 7 8 8 8 8 8 9 10 10 9 9 10 10 8 7 7 8 9 12 15 16 18 19 18 18 18 17 17 17 17 16 14 11 10 10 10 11 11 12 13 13 12 12 11 10 9 8 9 9 9 8 8 8 9 10 10 12 13 11 11 12 12
5 6 5 3 4 5 3 4 3 2 2 2 2 2 2 2 1 2 3 4 5 5 6 6 7 8 8 8 9 9 9 10 11 12 13 13 12 12 12 11 10 9 10 12 15 17 19 19 19 19 18 18 18 18 18 15 13 11 11 11 11 12 13 14 14 13 13 12 12 11 9 9 9 9 9 9 9 11 12 13 14 12 12 13 13
6 5 6 4 1 2 2 2 2 2 2 2 2 3 3 2 2 1 1 2 3 5 5 5 6 7 8 8 9 9 9 10 11 11 12 13 13 14 15 14 14 12 11 11 12 13 15 17 18 19 18 18 18 18 19 19 17 15 13 12 12 12 13 15 16 15 14 14 14 13 11 10 10 10 10 10 10 12 13 14 15 13 12 14 14
8 8 7 3 2 2 2 1 2 2 3 2 1 4 5 4 3 2 2 2 2 4 5 5 5 6 7 7 9 9 9 10 11 11 11 12 12 13 14 15 14 14 14 14 13 13 13 14 16 16 17 18 18 18 17 19 19 18 16 14 13 13 13 14 16 16 15 14 15 15 13 11 11 11 11 11 11 12 13 14 16 15 14 15 14
8 8 8 6 5 5 4 4 4 4 5 5 4 5 6 5 4 4 4 5 4 3 4 4 5 6 6 7 9 9 10 11 11 12 12 12 12 12 13 14 14 14 14 14 14 13 13 13 13 15 17 18 19 18 17 17 18 19 19 17 15 14 14 14 15 15 15 15 16 16 15 13 12 11 11 12 11 12 13 13 15 15 15 15 15
8 9 9 8 7 6 5 5 6 6 6 7 7 6 6 7 6 6 6 7 6 6 5 5 5 6 6 7 8 9 10 12 12 12 13 14 13 13 13 14 14 14 14 14 14 14 14 14 13 14 16 18 19 19 17 16 16 17 19 18 17 16 15 15 15 15 15 16 17 17 16 14 14 12 11 12 13 13 13 13 14 15 16 15 16
8 9 9 8 5 4 4 4 5 6 7 7 7 7 7 8 8 8 9 9 8 8 8 7 7 7 8 8 9 9 10 12 13 13 13 14 14 15 15 14 14 14 15 15 15 14 14 15 15 15 15 16 17 19 19 17 16 16 17 18 17 17 17 16 17 16 16 17 18 18 17 16 15 13 12 13 13 14 13 13 14 16 17 16 18
6 8 8 7 5 3 3 4 5 6 7 7 8 8 8 8 9 10 10 11 10 10 9 10 10 10 9 9 10 9 9 11 12 13 13 14 15 16 15 15 15 15 15 15 15 16 16 16 16 16 16 15 16 17 19 20 18 17 17 17 17 17 18 18 17 18 18 19 19 19 18 18 16 15 13 13 14 15 14 14 16 16 17 18 19
5 6 6 6 5 4 4 3 4 5 6 7 8 8 9 9 10 11 11 12 12 12 12 12 12 12 12 12 12 11 11 12 13 13 13 14 15 16 16 16 16 16 16 16 16 17 17 17 17 18 17 16 16 17 18 20 20 20 19 18 18 17 18 19 18 18 19 20 20 20 19 19 18 16 15 15 15 15 15 15 17 17 18 20 20
3 4 4 4 4 4 4 3 2 3 4 6 7 8 9 10 10 11 12 12 13 14 14 14 14 15 15 15 15 14 15 15 16 16 16 16 16 17 17 17 17 17 17 17 17 17 17 18 19 19 19 18 18 18 18 19 20 21 21 20 19 18 18 19 19 19 20 21 22 21 20 20 20 18 16 16 16 16 17 16 18 18 19 21 22
1 2 3 4 4 5 5 5 5 4 3 3 3 4 6 7 8 10 11 12 13 14 15 16 16 17 17 17 17 17 18 18 19 19 20 19 18 19 19 19 18 18 18 18 17 17 18 18 19 20 20 20 20 20 19 19 20 22 23 22 21 21 19 19 20 20 20 21 23 23 22 21 21 21 18 18 18 18 19 19 19 19 20 21 22
2 2 4 4 5 5 5 6 6 6 6 6 5 5 4 4 5 6 7 9 11 13 14 16 17 18 18 19 19 19 20 20 21 22 22 22 21 22 21 22 21 20 19 19 19 19 19 19 19 20 21 22 22 21 21 21 20 21 23 23 23 22 22 20 20 21 21 21 23 24 24 23 22 22 21 20 19 19 21 21 20 20 21 22 23
4 3 3 3 3 4 4 4 5 5 6 6 6 6 6 6 5 5 5 6 7 9 11 13 15 17 18 19 20 21 21 22 23 23 24 24 24 25 25 25 25 23 22 22 21 21 20 20 20 21 21 22 23 23 23 23 22 21 22 23 25 25 24 22 22 23 22 22 23 25 26 25 24 24 23 22 21 21 22 23 22 22 22 23 24
4 3 3 2 2 2 3 3 3 4 5 5 6 6 7 7 7 7 7 6 6 7 7 9 10 12 14 17 18 20 22 23 24 25 25 26 26 27 28 28 28 27 26 26 25 25 24 23 22 23 22 23 24 24 23 23 23 23 22 23 25 26 26 25 24 24 24 24 23 25 26 27 26 26 25 24 24 22 23 25 25 24 24 25 25
3 3 2 1 1 2 2 3 3 4 5 5 6 6 7 7 8 8 9 9 9 9 9 9 10 10 11 13 14 16 18 21 23 25 26 27 28 29 29 30 30 30 30 29 29 29 28 27 26 26 25 25 25 24 24 23 24 25 24 23 24 26 27 27 26 26 26 26 25 25 27 28 27 27 27 26 25 25 25 27 28 27 26 26 27
3 2 1 1 1 2 2 3 4 5 6 6 7 8 8 9 9 10 11 12 12 13 13 13 13 13 13 13 14 14 15 17 19 21 23 25 27 29 30 30 31 32 32 32 32 32 32 31 30 29 28 28 27 26 25 24 24 26 26 26 25 26 27 28 28 28 28 28 27 26 27 29 28 28 29 28 27 27 27 28 29 29 27 27 28
4 3 2 2 1 2 3 4 5 6 6 7 8 9 10 10 11 12 12 13 14 15 15 16 16 16 16 16 16 17 17 17 18 18 20 21 24 26 27 29 31 32 33 33 34 33 34 34 34 33 32 31 30 29 28 27 26 26 27 28 27 26 27 28 29 29 30 30 29 28 28 29 30 29 30 30 28 29 30 30 31 30 28 28 29
4 4 3 2 2 3 3 4 5 6 7 7 8 9 10 10 11 12 12 13 14 15 16 17 18 18 19 19 19 19 20 20 20 21 21 21 22 23 24 26 28 29 31 33 34 35 35 35 36 37 37 36 34 32 31 30 29 27 27 28 28 28 28 28 29 30 31 32 32 31 30 29 30 31 31 31 31 32 32 32 32 32 31 30 30
5 4 3 3 2 3 4 5 6 6 7 8 9 9 10 10 11 12 12 13 14 14 15 16 17 18 19 20 21 21 22 22 23 23 24 24 24 24 24 25 26 27 28 30 32 34 35 36 36 38 39 40 39 36 35 34 33 31 29 29 29 29 30 30 31 31 31 33 34 34 32 30 30 32 33 33 33 34 35 34 34 34 33 32 31
5 4 3 2 2 3 4 5 6 7 8 8 10 10 11 11 12 13 13 14 14 15 15 16 16 17 18 18 20 20 21 22 23 24 25 26 26 27 27 27 27 27 28 28 30 31 33 35 36 37 37 39 41 41 39 38 37 35 33 31 31 31 31 33 33 32 32 34 35 36 35 33 31 33 34 35 35 35 37 36 36 36 35 34 33
6 5 4 3 3 3 4 5 6 7 8 9 10 10 12 12 13 14 14 15 15 15 15 16 16 16 17 17 18 19 19 20 21 22 23 24 26 27 28 29 30 30 30 29 29 30 31 33 34 36 36 37 39 41 42 41 39 38 36 35 34 33 33 34 35 35 35 35 36 38 37 36 34 33 34 35 36 36 38 38 37 38 37 36 36
8 7 5 4 4 4 4 5 6 7 8 9 11 11 13 13 14 15 15 16 16 16 17 17 17 17 17 18 18 19 19 20 21 22 22 23 24 24 26 27 29 31 32 32 31 31 31 31 33 34 35 36 37 39 41 42 41 40 39 39 38 37 36 36 36 37 37 36 37 39 39 38 37 35 35 36 37 37 38 40 40 40 39 37 37
9 7 6 5 4 4 4 5 6 7 9 10 12 12 13 14 15 15 16 16 17 17 17 18 18 18 18 18 18 19 19 20 21 22 23 24 24 25 25 25 27 28 30 32 33 33 33 33 32 33 35 36 36 37 38 40 41 42 42 41 40 40 38 37 38 39 39 39 39 40 40 40 40 38 37 36 38 38 38 40 41 41 41 39 39
9 8 7 5 5 5 5 6 7 8 10 11 12 13 14 15 15 16 16 17 17 18 19 19 19 20 20 19 20 19 19 20 20 21 22 23 24 25 26 27 27 28 29 30 31 33 34 35 35 34 34 35 36 37 38 38 39 41 43 43 43 42 41 40 40 40 41 41 41 40 40 41 42 41 40 38 38 39 39 40 41 42 42 41 40
10 8 6 5 5 5 5 6 7 9 11 12 13 14 14 15 15 16 17 17 18 19 19 20 20 21 21 21 21 21 21 21 21 21 21 22 23 24 25 26 28 29 30 31 31 32 33 35 36 36 36 36 36 36 37 38 38 39 41 43 43 43 44 43 41 41 42 43 43 42 41 42 43 44 42 41 40 40 40 41 42 43 44 44 42
10 9 6 6 5 5 5 6 8 10 11 12 13 14 14 15 16 16 17 18 18 19 20 20 21 22 22 23 23 23 24 24 24 23 23 23 22 23 23 24 26 27 29 31 32 33 34 35 35 36 37 37 37 37 37 38 39 39 39 40 42 43 44 44 43 43 44 44 44 44 43 42 44 46 45 44 42 41 41 41 43 44 46 47 44
11 8 6 6 5 5 6 7 9 10 11 12 13 14 14 15 16 16 17 18 18 19 20 21 22 22 23 24 24 25 25 26 26 27 27 26 26 25 24 24 24 26 27 29 31 32 35 37 37 37 37 38 38 38 38 38 39 40 40 39 40 41 43 44 43 45 46 45 45 45 45 44 45 46 47 47 45 44 43 42 44 45 47 49 48
11 8 6 5 5 5 6 7 9 10 11 12 13 13 14 15 16 16 17 17 19 19 21 21 22 23 23 24 25 26 27 28 28 29 30 30 31 31 30 29 28 27 27 29 30 31 32 35 38 39 40 40 39 39 39 40 40 40 42 42 41 41 42 42 40 41 45 47 46 46 47 46 46 47 48 49 48 46 45 44 44 46 49 51 51
10 7 6 5 5 5 6 7 8 10 11 12 13 14 15 15 16 16 17 18 20 21 22 22 23 24 24 26 27 28 28 30 30 31 31 32 33 33 34 35 35 34 32 32 31 32 32 33 35 37 40 43 43 42 40 41 41 42 42 43 44 43 43 43 41 39 42 48 49 48 48 48 47 47 48 50 51 50 47 46 46 47 49 50 51
10 8 7 6 5 5 6 7 8 9 11 12 13 14 15 16 16 17 18 19 21 22 23 24 25 26 27 27 28 28 29 30 31 31 32 32 33 33 34 36 37 38 38 38 36 35 34 34 34 35 37 40 44 46 45 44 42 42 43 44 45 46 46 46 46 44 43 44 48 50 50 49 50 49 49 50 51 52 50 48 47 48 50 51 52
11 9 7 6 6 6 6 7 8 9 11 12 13 14 15 16 17 18 19 20 21 22 24 25 26 27 28 29 29 29 30 31 31 32 32 33 33 34 34 35 36 37 39 40 41 40 39 38 36 36 36 38 41 44 47 49 47 44 43 45 46 47 48 48 48 47 44 42 43 49 51 51 51 51 51 51 51 53 52 50 49 50 50 51 52
11 9 7 7 7 6 6 7 8 10 11 12 13 14 15 17 18 18 19 20 22 23 24 25 26 28 29 29 30 31 31 32 32 33 33 34 35 35 35 36 37 37 38 39 41 42 43 42 41 39 38 39 40 43 45 49 51 50 46 45 46 47 49 49 49 49 48 45 42 45 49 52 52 52 53 53 53 53 54 53 51 51 51 50 51
11 9 8 8 7 6 6 7 8 10 11 12 13 14 16 17 18 19 20 21 22 23 25 26 28 29 29 30 30 31 31 32 33 33 34 35 35 36 36 37 37 38 39 39 40 41 43 44 44 44 42 41 41 42 44 47 51 52 51 48 46 47 49 50 51 51 50 50 46 45 47 50 51 52 53 54 55 54 55 55 54 52 52 52 51
11 10 9 8 7 6 6 7 8 10 11 12 14 16 17 18 19 20 20 21 22 24 25 26 28 29 30 30 31 31 31 32 33 34 34 35 36 36 37 38 38 39 40 41 41 42 43 44 44 45 46 45 44 44 43 45 48 51 53 53 50 48 49 51 53 53 53 52 50 48 46 47 50 52 52 54 56 57 56 56 56 54 52 53 53
12 10 10 8 7 6 6 7 9 10 12 13 15 17 18 19 19 20 21 22 22 24 25 27 29 30 31 31 31 32 32 32 33 34 35 36 37 37 38 38 39 40 40 41 42 42 43 44 43 43 46 46 47 47 45 44 47 49 52 54 54 52 49 50 53 54 54 54 52 51 48 46 48 52 54 55 56 57 58 57 57 55 53 54 54
12 11 10 9 7 7 7 8 10 12 13 14 16 17 18 18 19 20 21 22 22 24 25 27 30 31 32 32 32 32 33 33 34 35 36 37 37 38 38 39 40 41 41 42 42 43 42 43 42 40 43 45 46 48 48 47 47 48 49 52 55 55 53 52 52 54 55 54 53 54 52 48 47 50 54 56 56 56 58 59 58 56 54 54 54
12 11 10 9 8 7 8 9 11 12 14 15 16 17 18 18 19 20 21 22 23 24 26 29 32 32 32 32 33 33 34 35 35 36 37 37 38 38 39 39 40 41 42 43 43 43 42 43 42 39 38 42 45 47 48 48 48 48 48 50 53 54 55 55 53 53 55 55 55 55 55 51 48 49 52 54 57 57 57 59 60 57 55 55 54
13 12 11 9 9 8 9 11 12 13 15 16 17 17 18 19 20 20 21 23 24 25 27 30 33 33 33 33 33 34 34 35 36 37 37 38 38 38 38 38 39 40 41 43 44 43 42 42 43 42 39 40 42 45 46 46 46 48 49 50 51 52 55 56 55 53 53 56 57 57 57 54 50 49 50 53 57 59 58 57 59 59 57 56 54
14 13 11 10 9 9 10 12 13 14 15 16 17 18 19 20 20 21 22 23 25 26 28 32 33 33 33 33 33 33 34 35 36 37 37 38 39 39 39 39 40 41 42 44 45 45 44 43 43 44 43 41 42 43 43 42 43 46 49 50 50 50 53 55 56 55 54 55 57 58 57 56 53 50 49 52 55 59 61 58 58 60 59 57 56
15 13 12 11 10 10 11 12 13 14 15 17 18 18 20 21 22 23 23 24 26 27 29 32 33 33 33 33 34 34 35 35 36 37 37 38 39 40 40 40 41 42 44 46 47 47 46 45 44 44 45 45 45 43 41 39 40 44 48 50 51 50 52 53 55 56 54 54 56 58 58 58 57 52 50 52 54 57 61 61 59 60 60 59 57
16 14 12 11 11 11 11 12 13 14 15 17 18 19 21 22 24 25 26 26 28 28 29 31 32 32 32 33 34 35 35 35 36 36 37 38 39 40 41 41 42 43 44 46 47 48 47 47 46 45 44 45 46 44 38 35 38 43 44 46 49 50 50 51 53 54 54 53 54 57 58 57 58 56 52 52 54 55 59 62 61 60 60 60 59
18 15 14 13 12 12 12 12 13 14 16 17 18 20 22 23 25 26 28 28 29 30 30 31 32 31 32 33 34 35 35 36 36 37 37 38 39 40 41 42 42 42 44 45 46 47 47 46 45 46 45 43 44 42 36 32 35 40 41 41 45 48 48 49 50 51 51 50 49 53 58 57 57 58 55 52 53 55 55 59 61 60 60 60 60
20 17 16 15 14 12 12 12 13 14 16 17 18 20 21 23 25 26 28 29 30 31 31 32 33 33 34 34 35 36 37 37 37 37 38 39 40 40 41 42 42 42 43 45 46 47 47 46 44 43 45 43 42 40 35 31 32 36 38 38 39 40 42 45 45 43 41 38 36 40 49 55 57 58 57 53 53 55 56 57 59 59 59 60 60
23 20 18 16 15 13 12 12 13 14 15 17 18 20 22 23 25 26 28 30 30 31 33 34 35 36 36 36 37 37 38 38 37 38 39 40 41 42 42 43 44 44 44 46 47 48 47 47 45 42 41 41 43 43 39 33 31 32 33 35 35 31 33 39 40 40 38 34 31 30 35 42 50 56 58 57 55 54 56 56 57 58 58 59 60
26 22 19 16 15 13 12 12 13 14 15 17 19 20 22 24 25 27 28 29 30 32 34 35 36 37 38 38 38 38 38 38 37 38 38 40 41 42 43 44 45 44 45 46 48 49 48 47 46 44 40 39 42 45 43 38 35 34 33 34 32 26 29 33 34 41 44 39 35 36 34 31 36 46 54 57 56 54 55 56 56 57 57 58 59
28 24 20 17 14 13 12 12 13 14 15 17 19 21 23 25 27 29 30 32 32 33 34 36 37 38 38 39 39 37 37 37 37 37 38 39 41 43 43 44 45 45 45 47 48 49 49 48 46 45 44 40 39 43 46 43 39 38 37 38 37 34 36 35 31 39 46 44 41 40 40 36 32 35 42 49 54 53 55 57 57 55 56 58 58
29 24 20 17 14 13 12 12 13 14 15 17 19 21 23 25 27 29 30 32 34 34 35 37 38 39 40 40 40 39 37 37 38 38 38 40 41 43 44 45 46 46 46 48 49 49 49 49 47 46 46 43 39 41 45 44 41 41 38 37 40 42 44 41 35 35 39 45 47 43 40 41 39 35 32 37 47 54 56 57 57 57 56 57 58
29 25 20 16 14 12 12 12 13 14 15 17 19 21 24 25 27 28 29 31 33 35 37 38 39 40 41 41 41 40 39 38 39 39 39 39 41 43 44 45 46 46 47 48 50 50 49 49 48 47 47 45 41 41 44 42 39 41 40 36 37 40 42 43 41 38 35 39 48 49 45 43 43 40 33 32 39 49 57 58 57 59 58 57 58
30 25 20 16 14 12 12 13 13 14 15 17 19 21 24 25 26 28 30 31 33 35 37 39 39 41 42 42 41 41 40 40 39 40 40 40 41 43 45 46 47 47 48 50 51 51 50 49 49 48 48 47 44 42 44 43 41 43 43 40 39 38 39 41 41 41 39 36 40 47 47 45 45 45 39 33 32 37 51 60 58 59 60 58 58
30 25 20 17 14 12 12 13 13 14 15 17 19 21 23 25 26 29 31 32 34 36 38 39 40 41 42 43 43 42 42 41 41 41 41 41 43 44 45 46 47 48 49 51 52 52 51 50 49 49 48 48 47 44 44 44 45 46 44 41 40 38 37 40 39 38 38 36 36 42 43 42 45 48 46 40 33 29 40 56 60 58 61 60 58
31 26 21 18 15 13 12 12 14 15 16 17 19 20 22 24 26 29 31 33 35 37 39 40 40 41 42 43 44 44 44 43 43 43 42 43 45 45 46 47 47 48 50 51 53 53 52 51 49 49 48 48 46 44 44 44 45 46 44 41 41 40 39 39 38 36 35 35 35 39 41 39 41 47 50 49 43 33 34 47 60 60 58 59 58
Wind_Direction
3 24 63 87 98 103 84 84 104 148 122 104 96 84 67 37 19 2 351 355 354 355 356 353 351 350 348 349 344 339 337 333 332 336 338 336 331 327 324 312 299 291 285 280 275 275 277 280 282 282 284 286 287 286 283 276 271 271 267 264 259 257 259 261 264 264 263 260 251 246 251 260 265 255 249 249 252 254 244 234 231 237 239 228 219
343 10 18 32 100 111 109 93 101 143 159 165 140 137 113 99 65 8 332 338 331 327 335 340 344 342 336 335 333 331 332 328 327 328 333 336 333 331 334 336 334 324 309 296 286 279 277 278 281 283 283 282 284 287 288 286 281 278 275 271 265 260 260 261 262 262 261 257 251 246 246 254 258 257 257 254 253 252 246 240 235 234 239 231 219
305 296 305 327 72 138 148 104 124 128 152 185 181 193 181 169 159 137 264 314 308 303 308 324 331 326 322 322 320 316 319 318 318 320 323 328 327 325 326 326 329 329 326 323 315 302 291 285 284 286 287 284 282 284 287 289 288 285 281 276 272 267 264 263 262 261 258 254 251 248 244 247 250 260 268 259 251 249 246 243 241 234 233 231 222
289 283 290 306 289 257 239 239 202 194 199 207 202 206 207 208 206 193 206 235 265 297 294 303 308 307 310 312 310 305 308 308 307 308 307 310 314 315 316 317 321 322 322 325 327 323 312 302 296 294 294 292 289 287 285 287 288 287 285 281 276 272 267 264 263 262 259 253 251 249 245 245 247 259 268 260 250 247 246 246 243 233 228 227 223
288 292 298 292 279 275 264 255 239 233 227 229 234 227 225 228 238 235 230 225 226 265 277 285 285 286 297 299 297 297 301 298 294 295 294 294 297 300 302 306 310 314 315 319 321 320 316 312 310 307 304 301 299 295 290 285 285 285 285 283 279 274 269 265 263 263 261 256 252 250 247 245 247 254 258 255 250 245 247 247 239 229 226 224 221
296 298 300 297 284 273 266 257 251 251 247 243 245 246 242 242 247 248 244 234 231 244 257 272 274 269 276 280 276 281 289 290 288 287 287 288 288 289 291 295 299 303 307 310 312 311 310 309 310 309 308 308 308 306 302 292 285 283 282 282 280 275 269 265 262 260 260 257 254 251 248 245 246 250 251 248 247 245 247 242 231 227 227 221 219
305 306 304 307 302 285 276 264 254 252 253 253 254 257 252 249 247 247 247 243 244 246 251 259 263 262 265 269 264 269 275 277 281 282 284 287 287 285 287 288 291 296 299 301 303 303 302 303 304 303 303 306 307 307 306 301 295 288 282 281 279 276 271 265 261 258 257 257 255 252 249 245 243 245 245 241 243 245 246 239 229 230 228 220 220
307 303 307 313 321 325 305 276 265 258 257 258 258 261 262 261 256 254 253 252 254 253 255 256 256 258 260 263 263 271 276 272 273 275 278 283 285 286 287 284 284 289 292 293 294 294 296 297 297 297 297 299 300 299 298 298 299 295 289 284 281 278 274 269 263 258 255 255 255 253 249 246 243 240 241 238 240 245 244 237 231 232 229 222 222
305 309 317 319 326 335 329 300 278 270 266 266 265 267 268 269 267 264 262 259 259 258 259 260 262 262 260 261 264 272 275 272 271 271 273 276 279 283 285 281 280 281 284 286 287 287 289 292 292 292 291 292 294 294 293 293 294 293 291 288 285 280 276 273 266 259 255 253 254 254 250 247 244 238 237 236 237 244 243 236 232 231 227 222 222
321 347 350 344 355 5 6 3 339 303 285 279 277 277 276 275 275 273 271 268 265 263 262 263 266 267 267 268 270 272 271 271 271 273 274 274 275 277 280 278 278 278 279 280 281 282 283 285 287 288 288 287 287 287 288 288 288 287 287 287 286 284 279 276 270 262 257 256 254 253 251 248 245 238 235 235 234 241 244 239 236 232 228 226 224
24 40 35 34 35 36 34 32 34 32 21 357 323 303 295 288 284 282 280 277 275 272 269 267 266 267 270 271 273 274 274 273 273 275 275 275 275 274 275 275 276 276 277 277 276 278 280 281 282 283 283 283 282 282 282 282 283 284 285 284 284 283 281 279 275 268 259 257 256 254 252 248 246 240 234 233 232 237 242 241 240 234 231 230 226
112 86 69 63 60 53 48 41 36 33 34 33 29 20 4 344 322 305 296 289 285 282 279 276 273 272 272 272 272 273 274 274 274 275 276 277 277 276 275 275 275 275 274 274 274 275 276 278 279 279 279 278 278 279 279 277 277 278 281 282 281 281 280 279 276 273 264 257 256 256 254 249 246 242 235 232 231 232 238 241 240 236 231 229 227
130 113 98 78 70 62 55 47 40 32 25 23 21 19 16 13 5 352 337 320 306 297 290 286 282 280 278 277 275 275 275 275 275 275 276 277 278 278 277 277 276 274 274 274 274 273 272 274 274 275 276 275 275 277 277 274 274 273 273 277 278 278 279 278 274 273 271 261 255 255 255 252 248 243 236 232 231 229 236 240 239 238 233 230 228
143 136 116 96 80 61 54 43 36 29 21 15 7 4 2 359 357 353 348 340 332 321 311 302 294 290 286 284 282 280 278 277 277 276 277 277 277 277 277 277 277 275 274 274 274 273 272 272 271 269 271 272 272 274 275 273 273 272 270 270 274 276 277 277 274 271 271 268 261 255 254 253 249 245 238 232 231 229 234 239 238 237 235 232 230
163 151 122 109 83 52 43 27 23 17 8 3 355 351 347 344 343 339 336 332 329 323 318 313 307 303 297 293 290 286 284 281 280 278 278 277 277 277 276 277 277 276 275 274 274 274 274 272 270 268 269 269 269 270 272 272 271 271 270 268 269 272 275 276 275 272 270 269 266 260 254 253 250 247 241 232 230 230 231 237 238 237 235 234 232
184 176 161 171 44 23 17 10 8 1 356 351 345 341 336 332 330 326 324 320 317 315 312 309 305 302 299 296 294 292 290 287 285 282 280 279 278 277 276 276 275 276 275 274 273 272 273 272 271 269 268 269 270 270 268 268 269 269 268 268 267 267 270 273 274 273 272 269 267 264 257 254 250 247 243 235 229 229 230 235 238 238 236 236 235
196 200 209 241 279 340 351 359 357 354 349 344 340 336 333 328 325 320 316 313 309 306 304 302 300 298 296 294 293 291 291 290 289 288 286 283 281 280 278 277 275 274 274 273 272 271 270 270 271 271 270 270 270 271 268 266 266 267 266 265 266 264 265 268 271 271 271 270 267 265 261 255 251 247 245 239 233 229 228 233 238 239 236 235 236
202 213 225 258 279 324 337 350 350 349 343 343 340 336 334 329 326 322 318 314 309 306 302 300 297 296 294 293 292 290 289 288 289 289 289 288 287 286 284 282 279 277 275 273 273 272 270 269 269 270 272 272 270 268 267 265 263 262 262 263 264 264 263 262 265 267 269 270 268 265 262 258 253 248 245 242 237 232 229 231 238 240 237 235 235
207 221 234 268 289 325 335 344 341 343 342 341 341 339 339 336 335 331 328 325 319 316 311 307 303 300 297 294 292 290 289 287 286 286 286 288 288 288 288 287 285 283 280 277 275 274 273 271 268 267 268 270 270 268 265 263 262 260 260 260 260 262 263 261 260 262 264 267 267 265 262 259 255 250 246 242 239 237 234 233 237 238 237 235 234
213 225 240 268 294 331 334 340 339 342 341 341 344 344 344 344 345 341 338 335 330 327 321 317 312 308 305 301 298 295 293 290 288 286 285 285 285 287 287 288 287 286 285 283 281 278 276 274 272 270 267 266 267 268 267 264 262 261 259 257 258 260 262 261 259 258 260 262 265 265 263 260 257 252 248 245 241 240 238 237 236 237 236 235 235
221 228 242 266 286 320 325 335 338 341 342 345 348 350 352 351 349 347 344 340 335 331 327 323 318 315 313 309 308 304 302 300 297 294 291 289 287 287 287 287 288 287 287 286 285 283 280 278 276 274 271 267 266 266 267 266 263 261 259 257 257 257 258 260 259 256 256 257 260 263 262 260 258 254 250 247 245 242 241 239 236 235 236 234 234
225 231 241 255 272 301 315 328 332 338 345 351 355 357 357 356 352 350 346 341 337 333 329 325 322 319 317 315 313 311 310 309 308 306 303 301 298 294 291 289 288 288 288 288 287 286 284 282 280 277 274 271 268 266 266 265 264 262 260 258 257 257 256 258 259 258 255 254 256 258 261 260 259 256 252 249 247 245 243 241 236 234 236 234 233
225 229 234 244 260 286 301 317 326 339 350 356 359 0 358 356 354 350 346 341 337 333 330 327 324 322 321 319 318 316 315 314 313 312 311 309 308 305 303 299 295 292 290 288 288 287 286 284 282 281 278 274 271 268 267 265 263 262 260 258 257 257 255 255 258 259 257 254 253 254 257 259 258 257 254 251 249 247 245 243 239 235 236 235 233
223 228 233 246 262 282 299 315 331 344 353 359 360 359 358 355 352 349 344 340 337 333 330 327 325 324 322 321 321 321 321 320 319 318 315 314 312 310 309 307 305 302 298 293 290 287 286 284 283 281 280 278 274 270 268 267 265 262 261 259 258 256 255 254 255 258 257 255 254 252 253 256 257 257 256 253 251 249 246 244 242 237 236 236 234
224 229 233 246 261 282 301 322 340 350 355 358 358 356 355 352 349 345 341 339 337 333 330 328 326 324 323 323 323 323 323 323 322 321 320 318 317 315 314 312 310 308 306 302 298 294 289 286 283 282 280 279 277 274 270 268 266 264 261 260 259 258 256 255 255 257 256 255 255 253 252 252 254 255 255 254 252 250 247 244 243 240 237 236 235
224 225 229 245 259 283 310 335 346 353 358 356 355 353 350 348 344 342 341 339 336 334 331 328 326 325 324 324 323 322 322 322 322 322 322 321 320 318 317 316 314 312 310 307 304 302 299 294 289 285 283 280 278 276 273 270 268 266 263 261 260 259 258 257 257 258 257 256 255 254 252 250 251 252 254 254 252 251 249 245 244 242 238 237 236
222 222 229 247 268 298 324 342 348 352 355 354 352 349 347 344 342 341 339 338 336 335 332 331 329 327 326 325 324 324 324 323 324 324 324 324 323 322 320 319 317 316 314 310 307 305 303 300 297 292 288 284 280 277 274 272 269 267 266 263 261 260 260 260 259 260 259 257 255 254 254 251 249 250 251 252 252 251 249 247 244 242 240 238 237
221 225 237 255 286 312 331 342 346 350 351 351 349 346 345 342 340 339 339 339 339 337 336 334 333 331 329 329 329 328 328 328 328 328 327 327 327 327 326 324 321 319 317 314 312 308 304 302 299 297 294 290 285 280 276 273 270 268 266 265 263 261 261 260 262 265 264 259 255 254 254 252 249 248 248 250 251 251 250 248 245 243 242 240 238
221 227 242 263 288 308 330 338 342 346 347 348 346 344 343 341 340 340 342 343 342 342 340 338 336 334 334 333 333 332 333 333 332 332 330 330 329 328 328 327 326 325 322 319 316 313 309 305 301 297 295 293 290 287 281 275 271 268 266 264 263 262 262 261 261 263 263 261 257 254 254 254 251 248 247 248 249 250 249 249 248 244 243 242 241
221 229 242 261 280 301 320 331 337 342 343 344 343 343 343 341 341 343 346 347 345 344 342 340 339 338 337 336 336 335 335 334 333 332 331 330 329 328 327 326 326 325 324 323 321 318 314 310 305 300 295 291 290 290 287 282 275 270 267 264 261 260 261 262 262 262 261 262 260 256 254 254 252 249 248 247 247 249 249 248 247 246 244 242 242
222 233 243 261 278 298 315 326 332 337 339 341 343 344 344 342 343 346 348 348 345 343 342 341 340 339 337 337 336 335 334 333 333 332 330 329 328 327 326 325 324 324 323 323 323 321 318 314 309 304 298 292 288 287 287 286 282 276 270 266 263 260 259 259 261 262 262 263 265 261 255 254 253 250 248 247 246 247 248 248 246 247 247 243 242
226 235 246 261 276 295 312 324 329 334 337 341 344 344 344 343 344 348 348 346 345 344 344 342 340 338 336 335 334 333 332 332 331 331 330 329 329 328 328 327 325 324 323 322 321 320 319 316 313 308 303 297 291 287 284 283 283 281 277 270 265 262 260 258 257 258 260 260 265 264 258 254 253 252 249 247 247 246 247 248 246 245 247 246 242
229 236 246 259 271 289 305 319 326 331 336 339 342 343 343 344 345 346 347 346 346 345 344 341 338 337 335 334 333 331 331 330 330 330 330 330 329 328 328 327 326 325 324 322 320 318 317 315 314 311 306 301 295 291 286 282 280 280 280 277 271 265 261 261 258 256 256 257 260 263 261 257 253 252 251 248 247 247 247 248 247 244 245 247 245
230 236 246 255 266 280 298 314 323 328 333 338 340 341 341 344 345 345 346 346 345 344 342 339 337 335 332 331 330 330 330 330 330 330 330 329 328 328 327 326 325 324 323 322 321 319 318 316 314 311 307 303 298 294 289 284 280 278 278 278 276 270 264 262 260 257 255 254 257 259 262 261 256 252 252 250 247 247 247 247 247 245 244 245 246
229 235 245 252 262 277 297 310 319 325 330 335 337 338 340 343 345 344 344 343 342 341 339 337 333 330 328 328 329 330 331 331 331 330 330 330 328 328 327 325 324 322 322 322 321 320 318 316 314 311 306 303 298 295 291 286 282 278 276 277 277 275 270 263 260 259 256 254 255 255 258 263 260 254 252 250 248 247 247 247 247 246 244 244 244
228 233 242 252 263 278 295 307 316 322 327 332 334 337 339 342 342 341 340 339 338 338 337 334 330 328 328 329 330 332 332 333 332 331 330 329 328 327 326 325 323 322 322 322 322 321 320 316 314 309 304 300 295 293 290 287 284 279 276 275 275 276 275 269 262 259 258 256 254 252 254 259 260 257 252 250 249 248 247 248 247 246 245 244 243
228 234 242 253 265 278 292 304 312 318 325 329 332 335 338 339 339 338 337 336 337 337 337 333 329 329 329 330 332 332 332 332 331 329 327 326 326 324 324 323 322 321 320 322 324 324 323 319 314 308 299 294 291 288 286 285 284 282 278 274 274 275 275 273 269 263 260 259 255 251 251 254 257 258 255 251 249 249 248 248 247 246 245 244 243
230 236 246 253 264 278 291 304 311 318 324 328 331 333 335 335 335 335 335 335 335 336 335 332 330 329 330 330 331 330 330 329 328 326 325 324 323 322 322 322 321 321 321 322 323 324 323 319 314 309 300 290 287 286 285 283 282 281 280 275 272 274 274 274 273 268 263 261 257 252 249 250 254 257 256 253 250 248 248 250 248 246 245 244 244
234 239 246 253 265 281 292 303 311 319 323 326 329 330 331 332 332 332 333 333 333 335 335 331 329 329 329 329 328 327 327 326 325 324 323 323 322 322 322 323 324 325 325 324 323 324 324 320 314 309 303 294 286 282 283 285 283 280 278 277 275 273 274 274 275 273 268 262 259 255 250 247 250 255 257 255 252 249 247 249 249 247 245 243 245
236 242 247 254 267 280 291 301 309 316 320 322 325 326 328 329 330 330 332 333 333 335 334 329 327 327 327 326 325 325 325 325 325 324 323 323 322 323 324 326 328 328 327 326 325 324 323 320 315 308 303 298 291 282 280 285 286 281 276 275 276 275 274 274 274 274 271 265 259 257 254 249 247 250 256 255 252 249 247 247 248 247 245 243 244
236 243 247 255 265 275 287 297 306 313 316 320 324 326 328 329 329 330 331 333 332 332 331 326 323 323 323 322 323 323 324 324 324 323 323 323 324 325 326 328 329 328 327 325 324 322 321 319 314 308 301 297 294 285 279 283 286 283 280 278 276 275 275 275 274 273 272 270 263 257 255 253 248 247 251 255 252 249 247 246 247 247 246 244 244
236 242 248 255 262 272 285 296 306 312 317 321 324 327 328 329 330 330 331 332 332 331 329 325 322 322 322 323 324 324 324 325 325 325 325 325 325 326 326 325 325 324 322 321 319 318 318 316 312 306 301 295 291 286 280 281 282 281 283 284 281 278 276 275 275 273 273 274 269 262 257 254 251 246 247 253 253 249 247 246 246 246 246 244 243
235 241 246 253 262 273 285 296 306 311 317 321 323 325 326 328 329 329 330 330 331 329 328 327 325 324 326 326 326 326 326 326 326 326 325 325 325 324 323 322 322 322 320 318 317 316 315 314 310 303 298 294 288 282 277 275 277 280 282 280 279 282 283 278 275 274 275 275 272 266 261 256 252 247 246 251 252 249 248 247 245 245 247 245 243
233 239 244 252 262 273 285 295 304 310 315 318 321 324 325 326 327 327 328 328 329 328 327 327 327 326 328 327 327 326 326 326 326 326 325 325 324 323 323 322 322 322 321 319 317 316 315 312 309 302 295 289 285 281 275 270 270 274 278 276 275 279 279 277 279 278 275 271 264 261 263 261 255 250 246 249 251 249 249 248 245 244 246 246 244
232 239 244 251 261 271 283 294 302 308 313 316 319 322 323 324 325 325 326 326 326 327 326 327 327 326 326 326 325 325 324 324 324 325 324 324 323 322 322 321 320 320 319 318 316 315 313 310 307 301 294 286 282 281 277 271 266 264 266 270 272 270 268 275 286 284 278 276 271 262 259 259 255 251 248 248 250 250 250 247 245 244 244 245 245
232 238 244 250 258 269 281 292 300 305 311 315 319 322 323 324 325 326 327 326 327 328 327 326 325 324 323 323 322 322 322 322 322 323 323 322 321 320 320 319 318 318 317 316 314 313 311 309 305 299 293 286 281 280 277 273 270 264 260 261 262 263 268 274 283 284 283 284 281 271 261 255 253 251 250 250 249 248 248 247 246 244 244 243 243
232 238 243 248 255 267 280 289 296 303 310 315 319 321 323 324 326 327 328 328 329 329 328 326 325 324 323 322 321 322 323 323 322 323 322 322 320 319 318 318 317 317 316 314 312 311 310 307 303 296 291 286 280 278 275 274 274 269 263 260 260 261 265 268 271 277 285 288 284 279 268 259 257 255 250 250 250 248 245 246 246 244 244 243 242
231 237 241 245 253 264 277 286 293 301 309 315 319 321 322 324 325 326 327 328 328 327 326 325 324 323 322 321 321 322 323 323 322 322 322 321 319 318 318 317 316 316 315 313 311 310 308 305 301 295 290 285 278 275 274 272 272 269 264 261 261 261 263 264 265 266 272 282 284 284 278 268 262 257 249 246 250 250 245 243 244 243 243 242 241
231 236 240 243 250 260 273 283 291 301 308 314 318 321 322 323 324 325 326 328 327 326 324 323 323 322 321 321 321 321 322 322 322 321 321 320 319 318 317 317 316 316 314 312 310 309 307 304 299 294 290 284 277 273 272 268 265 266 264 263 262 263 265 264 261 260 260 266 277 283 284 279 270 260 253 250 249 255 249 241 241 243 242 241 239
230 234 238 241 246 255 268 280 290 299 308 313 317 320 321 322 324 325 326 327 326 324 322 322 321 320 320 320 320 321 321 321 321 321 321 321 319 318 318 317 316 315 313 311 309 308 306 303 298 293 289 285 279 273 270 266 262 262 263 265 265 262 265 266 259 254 256 260 267 276 281 283 279 266 257 255 252 262 260 244 238 240 241 240 239
228 231 234 238 244 253 263 277 289 298 307 313 316 319 320 322 324 325 326 326 325 322 321 321 321 320 320 320 320 321 321 321 320 320 321 321 320 319 318 317 315 314 312 310 308 306 304 302 297 293 289 285 281 275 271 265 261 261 261 261 261 259 260 263 259 252 255 260 263 271 276 279 282 274 263 260 257 263 272 253 237 234 238 239 239